Zurück zum Katalog

ION SCV-007

AktivKommunikationSSO
NORAD 55060·PAYLOAD·🇮🇹 Italy

Gestartet Jan 3, 2023 von Cape Canaveral Space Force Station

Loading…

Nächste Überflüge (nächste 24 Stunden)

TLE

AktuellSource: Space-Track

Epoche: Sep 14, 2026, 10:50 UTC

1 55060U 23001BD  26257.45166019  .00000295  00000-0  48274-4 0  9991
2 55060  97.8916 318.6559 0013396  51.6872 308.5541 14.77618397199431

Verfolge ION SCV-007 in Echtzeit mit AllMySat

Download on the App Store